Home   Weather   Fairfax   Past weeks
Flag for USA

Past Weather in Fairfax, Virginia, USA — Yesterday and Last 2 Weeks

Now
46 °F

High level clouds.


Feels Like: 42 °F
Forecast: 54 / 29 °F
Wind: 8 mph from South

Location: Washington-Dulles International Airport

Current Time: Mar 20, 2019 at 11:49:04 am

Latest Report: Mar 20, 2019 at 10:52 am


Visibility: 10 mi

Pressure: 30.39 "Hg

Humidity: 38%

Dew Point: 22 °F

Location of FairfaxLocation

Past Weather in Fairfax — Graph

°F

Fairfax Temperature Yesterday

Maximum temperature yesterday: 51 °F (at 4:52 pm)
Minimum temperature yesterday: 24 °F (at 7:52 am)
Average temperature yesterday: 39 °F

High & Low Weather Summary for the Past Weeks

 TemperatureHumidityPressure
High76 °F (Mar 15, 3:52 pm)96% (Mar 8, 5:52 pm)30.49 "Hg (Mar 8, 5:52 pm)
Low18 °F (Mar 7, 1:52 am)20% (Mar 11, 4:52 pm)29.68 "Hg (Mar 15, 5:52 pm)
Average42 °F53%30.19 "Hg
* Reported Mar 5 8:52 am — Mar 20 9:52 am, Fairfax. Weather by CustomWeather, © 2019

Note: Actual official high and low records may vary slightly from our data, if they occured in-between our weather recording intervals... More about our weather records

Advertising

Fairfax Weather History for the Previous 24 Hours

Scroll right to see more
 ConditionsComfort  
Time TempWeatherWind HumidityBarometerVisibility
9:52 am
Wed, Mar 20
43 °FBroken clouds.6 mph49%30.40 "Hg10 mi
8:52 am38 °FBroken clouds.No wind60%30.40 "Hg10 mi
7:52 am28 °FHigh level clouds.No wind78%30.39 "Hg10 mi
6:52 am27 °FOvercast.No wind78%30.39 "Hg10 mi
5:52 am27 °FHigh level clouds.3 mph78%30.38 "Hg10 mi
4:52 am28 °FHigh level clouds.No wind75%30.38 "Hg10 mi
3:52 am28 °FPassing clouds.3 mph75%30.38 "Hg10 mi
2:52 am29 °FPassing clouds.No wind66%30.40 "Hg10 mi
1:52 am29 °FPassing clouds.No wind69%30.40 "Hg10 mi
12:52 am32 °FPassing clouds.No wind61%30.40 "Hg10 mi
11:52 pm
Tue, Mar 19
34 °FClear.3 mph54%30.40 "Hg10 mi
10:52 pm39 °FClear.5 mph43%30.41 "Hg10 mi
9:52 pm39 °FClear.5 mph45%30.40 "Hg10 mi
8:52 pm41 °FClear.6 mph41%30.40 "Hg10 mi
7:52 pm40 °FClear.No wind47%30.39 "Hg10 mi
6:52 pm48 °FSunny.3 mph30%30.39 "Hg10 mi
5:52 pm49 °FSunny.3 mph28%30.38 "Hg10 mi
4:52 pm51 °FPassing clouds.8 mph27%30.39 "Hg10 mi
3:52 pm50 °FPassing clouds.5 mph27%30.41 "Hg10 mi
2:52 pm49 °FSunny.6 mph27%30.43 "Hg10 mi
1:52 pm48 °FPassing clouds.7 mph28%30.45 "Hg10 mi
12:52 pm46 °FScattered clouds.No wind30%30.47 "Hg10 mi
11:52 am46 °FSunny.5 mph30%30.48 "Hg10 mi
Weather by CustomWeather, © 2019

See weather overview